CZ-2D DEB, 35271

Orbit data source: Space-Track

CZ-2D DEB, 35271 is space debris in SSO originally from a launch on Tue, 05 Jul 2005 UTC launched from the Jiuquan Satellite Launch Center, China (JSC). Debris objects in space refer to the collection of defunct objects orbiting the Earth. Examples of debris include non-operational satellites, rocket bodies, and fragments generated from explosions, collisions, or faulty payload assembly.

Loading next visibility...
Identifier
35271, 2005-024K
Orbit
SSO
Country
Flag of CNCN / PRC
Related business
Manufacturer
Unknown
Mission
Spacecraft
Bus & Motor
Unknown
Mass
Unknown
Launch date (UTC)
2005-07-05 (20 years ago)
Launch vehicle
Unknown
Launch site
Jiuquan Satellite Launch Center, China (JSC)
Object type
Payload
Rocket body
Debris
Shape & HBR
Unknown
Radar Cross Section
Small (<0.1 m²)

Expand to show TLE details & history
Last TLE update: 1 day ago

TLE from 1 day ago
0 CZ-2D DEB
1 35271U 05024K   25242.85291235  .00035757  00000-0  58231-3 0  9998
2 35271  97.2099 268.4429 0008428 139.5196 220.6686 15.52526143 59230
Epoch: 2025-08-30T20:28Z
TLE epoch observation values (Epoch: 2025-08-30T20:28:11.627Z)
Latitude
0.00004°
Longitude
-17.88681°
Altitude
416.835 km
Speed
7.658 km/s
True Right ascension
17h 53m 46s
True Declination
0° 00' 00"
Sunlit
Object was in daylight at epoch
Visualization orbit readout
Latitude
Unknown
Longitude
Unknown
Altitude
Unknown
Speed
Unknown
Apparent Right ascension
Unknown
Apparent Declination
Unknown
Sunlit
N/A
Visualization observer readout
Local Sidereal Time
12:52:14
Azimuth
Unknown
Elevation
Unknown
Doppler factor
Unknown
Orbital elements
Apogee altitude
411.985 km
Perigee altitude
400.55 km
Semi-major axis
6,784.405 km
Eccentricity
0.00084
Inclination
97.2099°
RAAN
268.4429°
Arg. of periapsis
139.5196°
True anomaly
220.60571°
Mean anomaly
220.6686°
Eccentric anomaly
220.63715°
Mean motion
3.88397 °/min
Orbital period
92.69 mins
BSTAR
0.00058231
Loading maneuver chart data...
Computing Atmospheric mass density...
Loading historical data...
Loading historical data...
Loading historical data...
Loading historical data...
Loading historical data...
Loading historical data...
Loading historical data...

Documentation

Showing up to 5 results
|